"Pseudo-MPEC" for N00nnyc

Created 2024 Jun 15 10:22:06 UT using Find_Orb

Click here for an explanation of pseudo-MPECs

 
 Astrometry: 
     N00nnyc* S2024 05 22H(Ie7-(9+aC6-2\xo#Z'f7#ZHV;p82#Astrometry/tredacted;C51
     N00nnyc  s2024 05 22_I%FFoT23j0]GD]NetDclickh.lD#c7vO:+#.\TQTfexQHEO_N:3C51
     N00nnyc  S2024 05 22r\u?[y(ru12Z5fiqgwIuhtojsx)G9@u7_VjAN?,;A'imHfpDhereC51
     N00nnyc  s2024 05 22*^rS(ER1mk'g@wcG%(S@(OqBJ8lHB*tP2@(C3M$mBD+'Jh4DpcFhC51
     N00nnyc  S2024 05 23_KZ+s5HRGh4DUaH//EiS*p#r^Hin1askmGG\oT^7B\l*+!9*DlhnC51
     N00nnyc  s2024 05 23JaRr*T@op::=aay0o]G8@9v%nicl5Q`_ll1vG,Eq_4;!gKpKrbEeC51
     N00nnyc  S2024 05 23^$3MA%cr?e14;2@a)tq5!_`LdX4cwMg0T.iqZ.tysbo,\V5VVak2C51
     N00nnyc  s2024 05 23FQ^0forcLM:y:$TmK6Uy6Na+4C;$SKeD]1OuulHH,!0UrW[bfZx;C51
     N00nnyc  S2024 05 23v]OsRSM$rK;)U7XG_Z.:PrpP+eec1;!;5SHWAexplanationAM$vC51
     N00nnyc  s2024 05 23d]x#q,=H$gJ.r5%8S6-TQBa8su4Fy0d\bg.n^VMZ5xp:j#+x16trC51

Station data:
(C51) WISE. Measurers A. Mainzer, E. Wright, J. Bauer, T. Grav, J. Dailey, J.
   Masiero, R. Cutri, R. McMillan, R. Walker.

Orbital elements:  N00nnyc
   Perihelion 2024 Jan 1.99589 +/- 15.2 TT = 23:54:04 (JD 2460311.49589)
Epoch 2024 May 23.0 TT = JDT 2460453.5   Earth MOID: 0.0060      AutoNEOCP
M 138.35822909 +/- 3.9              (J2000 ecliptic)
n   0.97432549 +/- 0.0784           Peri.  342.50163 +/- 19
a   1.00770482 +/- 0.0496           Node   119.12556 +/- 14
e   0.0148902 +/- 0.111             Incl.    1.21394 +/- 5.6
P   1.01/369.48d           H 25.75  G  0.15   U 11.0
q 0.99269982 +/- 0.153    Q 1.02270982 +/- 0.0583
4 of 5 observations 2024 May 22-23 (30.7 hr); mean residual 3".32
Residuals in arcseconds: 
240522 C51  2.8+  4.9-    240523 C51( 8.1+  9.0+)   240523 C51  .73-  5.1+    
240522 C51  2.2+  2.2+    240523 C51  3.0+  3.2-    

Ephemerides (geocentric):
Date (UTC) HH   RA             Dec           delta  r     elong  mag " sig PA
---- --------  ------------   ------------  ------ ------ -----  --- --------
2024 06 15 10  13 32 10.305   +24 09 20.24  .02385 1.0219 104.2 20.3 244' 176
2024 06 15 11  13 32 13.912   +24 06 48.41  .02384 1.0219 104.2 20.3 245' 176
2024 06 15 12  13 32 17.523   +24 04 16.50  .02384 1.0219 104.2 20.3 246' 176
2024 06 15 13  13 32 21.137   +24 01 44.52  .02384 1.0219 104.2 20.3 247' 176
2024 06 15 14  13 32 24.755   +23 59 12.47  .02384 1.0219 104.2 20.3 248' 176
2024 06 15 15  13 32 28.375   +23 56 40.34  .02383 1.0219 104.2 20.3 249' 176
2024 06 15 16  13 32 32.000   +23 54 08.14  .02383 1.0219 104.2 20.3 250' 176
2024 06 15 17  13 32 35.627   +23 51 35.86  .02383 1.0219 104.2 20.3 250' 176
2024 06 15 18  13 32 39.258   +23 49 03.51  .02382 1.0219 104.2 20.3 251' 175
2024 06 15 19  13 32 42.893   +23 46 31.09  .02382 1.0219 104.2 20.3 252' 175
2024 06 15 20  13 32 46.530   +23 43 58.60  .02382 1.0219 104.2 20.3 253' 175
2024 06 15 21  13 32 50.172   +23 41 26.03  .02382 1.0219 104.2 20.3 254' 175
2024 06 15 22  13 32 53.816   +23 38 53.39  .02381 1.0219 104.2 20.3 255' 175
2024 06 15 23  13 32 57.464   +23 36 20.68  .02381 1.0219 104.2 20.3 256' 175
2024 06 16 00  13 33 01.115   +23 33 47.89  .02381 1.0219 104.2 20.3 257' 175
2024 06 16 01  13 33 04.769   +23 31 15.04  .02380 1.0219 104.2 20.3 258' 175
2024 06 16 02  13 33 08.427   +23 28 42.11  .02380 1.0219 104.2 20.3 259' 175
2024 06 16 03  13 33 12.088   +23 26 09.10  .02380 1.0220 104.2 20.3 260' 175
2024 06 16 04  13 33 15.752   +23 23 36.03  .02380 1.0220 104.2 20.3 260' 175
2024 06 16 05  13 33 19.419   +23 21 02.88  .02379 1.0220 104.2 20.3 261' 175
2024 06 16 06  13 33 23.090   +23 18 29.66  .02379 1.0220 104.2 20.3 262' 175
2024 06 16 07  13 33 26.764   +23 15 56.37  .02379 1.0220 104.2 20.3 263' 175
2024 06 16 08  13 33 30.441   +23 13 23.01  .02378 1.0220 104.2 20.3 264' 175
2024 06 16 09  13 33 34.122   +23 10 49.57  .02378 1.0220 104.2 20.3 265' 175
2024 06 16 10  13 33 37.805   +23 08 16.06  .02378 1.0220 104.2 20.3 266' 175
2024 06 16 11  13 33 41.492   +23 05 42.48  .02378 1.0220 104.2 20.3 267' 175
2024 06 16 12  13 33 45.182   +23 03 08.83  .02377 1.0220 104.2 20.3 268' 175
2024 06 16 13  13 33 48.876   +23 00 35.11  .02377 1.0220 104.2 20.3 269' 175
2024 06 16 14  13 33 52.572   +22 58 01.31  .02377 1.0220 104.2 20.3 270' 175
2024 06 16 15  13 33 56.272   +22 55 27.45  .02376 1.0220 104.2 20.3 271' 175
2024 06 16 16  13 33 59.975   +22 52 53.51  .02376 1.0220 104.2 20.3 271' 175
2024 06 16 17  13 34 03.680   +22 50 19.50  .02376 1.0220 104.2 20.3 272' 175
2024 06 16 18  13 34 07.390   +22 47 45.42  .02376 1.0220 104.2 20.3 273' 175
2024 06 16 19  13 34 11.102   +22 45 11.27  .02375 1.0220 104.2 20.3 274' 175
2024 06 16 20  13 34 14.817   +22 42 37.05  .02375 1.0220 104.2 20.3 275' 175
2024 06 16 21  13 34 18.535   +22 40 02.76  .02375 1.0220 104.2 20.3 276' 175
2024 06 16 22  13 34 22.257   +22 37 28.39  .02374 1.0220 104.2 20.3 277' 175
2024 06 16 23  13 34 25.982   +22 34 53.96  .02374 1.0220 104.2 20.3 278' 175
2024 06 17 00  13 34 29.709   +22 32 19.45  .02374 1.0220 104.2 20.3 279' 175
2024 06 17 01  13 34 33.440   +22 29 44.88  .02374 1.0220 104.2 20.3 280' 175
2024 06 17 02  13 34 37.174   +22 27 10.23  .02373 1.0220 104.2 20.3 281' 175
2024 06 17 03  13 34 40.911   +22 24 35.51  .02373 1.0220 104.3 20.3 282' 175
2024 06 17 04  13 34 44.651   +22 22 00.72  .02373 1.0220 104.3 20.3 283' 175
2024 06 17 05  13 34 48.394   +22 19 25.87  .02372 1.0220 104.3 20.3 284' 175
2024 06 17 06  13 34 52.140   +22 16 50.94  .02372 1.0220 104.3 20.3 285' 175
2024 06 17 07  13 34 55.889   +22 14 15.94  .02372 1.0220 104.3 20.3 286' 175
2024 06 17 08  13 34 59.640   +22 11 40.87  .02372 1.0220 104.3 20.3 287' 175
2024 06 17 09  13 35 03.395   +22 09 05.73  .02371 1.0220 104.3 20.3 288' 175